Miscellaneous Local Product
Issued by NWS Hastings, NE

Home | Current Version | Previous Version | Graphics & Text | Print | Product List | Glossary On
Versions: 1 2 3 4 5 6 7 8 9 10 11 12 13 14 15 16 17 18 19 20 21 22 23 24 25 26 27 28 29 30 31 32 33 34 35 36 37 38 39 40 41 42 43 44 45 46 47 48 49 50
000
AXUS43 KGID 201402
MISGRI

GID CWA HOURLY WEATHER ROUNDUP
NATIONAL WEATHER SERVICE HASTINGS NE
800 AM CST SAT DEC 20 2014

NOTE: "FAIR" INDICATES FEW OR NO CLOUDS BELOW 12,000 FEET WITH NO
SIGNIFICANT WEATHER AND/OR OBSTRUCTIONS TO VISIBILITY.

...SOUTH CENTRAL NEBRASKA...

CITY           SKY/WX    TMP DP  RH WIND       PRES   REMARKS
GRAND ISLAND   FOG       29  28  96 S5        30.06S VSB 1/4 WCI  24
HASTINGS       HAZE      28  23  81 W3        30.05R VSB 1/4
KEARNEY        PTCLDY    18  12  79 CALM      30.05S
ORD            NOT AVBL
YORK           CLOUDY    32  32 100 CALM      30.07S FOG
AURORA         FOG       31  31 100 CALM      30.06R VSB 1/4
LEXINGTON      CLEAR     20  19  93 NW5       30.03S FOG     WCI  14
HOLDREGE       FAIR      22  20  91 W3        30.03S
HEBRON         FOG       28  27  96 W5        30.09S VSB 3/4 WCI  23

...NEBRASKA PANHANDLE...

CITY           SKY/WX    TMP DP  RH WIND       PRES   REMARKS
CHADRON        CLOUDY    22  17  81 SW9       29.95R WCI  12
ALLIANCE       CLEAR     11   8  88 W5        29.95S WCI   3
SCOTTSBLUFF    MOCLDY    19  15  84 CALM      29.97R
SIDNEY         PTCLDY    22  16  78 W9        29.99R WCI  12

...WESTERN AND NORTH CENTRAL NEBRASKA...

CITY           SKY/WX    TMP DP  RH WIND       PRES   REMARKS
VALENTINE      CLEAR     13  10  88 SW8       29.97R WCI   2
AINSWORTH      PTCLDY    21  15  78 SW5       29.97S WCI  15
ONEILL         CLEAR    N/A N/A N/A CALM      30.02R
BROKEN BOW     CLEAR     18  14  84 CALM      30.00S
IMPERIAL       PTCLDY    20  16  84 W3        30.01R
NORTH PLATTE   CLEAR     15  12  88 NW5       30.01S WCI   8
MCCOOK         CLEAR     22  20  92 W5        30.04R WCI  16

...EASTERN NEBRASKA...

CITY           SKY/WX    TMP DP  RH WIND       PRES   REMARKS
NORFOLK        CLOUDY    32  30  92 S5        30.06S FOG     WCI  27
SO SIOUX CITY  CLOUDY    32  30  92 S7        30.11R FOG     WCI  26
TEKAMAH        CLOUDY    32  31  96 SE9       30.12R FOG     WCI  24
COLUMBUS       CLOUDY    32  27  80 S7        30.09R WCI  26
ALBION         FOG       31  29  94 SW6       30.05S VSB 1/2 WCI  25
OMAHA EPPLEY   CLOUDY    32  32 100 S9        30.13R FOG     WCI  24
OFFUTT AFB     CLOUDY    32  31  96 SE7       30.11S FOG     WCI  26
MILLARD        CLOUDY    32  31  97 E6        30.11S FOG     WCI  27
LINCOLN        CLOUDY    32  31  96 S6        30.11R FOG     WCI  26
NEBRASKA CITY  CLOUDY    32  32 100 S5        30.11S FOG     WCI  27
BEATRICE       CLOUDY    32  32 100 SW7       30.09S FOG     WCI  26
FALLS CITY     CLOUDY    33  30  88 S6        30.13R WCI  28

...NORTHERN KANSAS...

CITY           SKY/WX    TMP DP  RH WIND       PRES   REMARKS
GOODLAND       CLEAR     28  24  85 W9        30.03R WCI  19
HILL CITY      CLEAR     26  23  88 W5        30.07R WCI  20
NORTON         SUNNY     23  19  86 SW6       30.03F WCI  16
PHILLIPSBURG   CLEAR     25  25 100 CALM      30.08R
SMITH CENTER   CLEAR     25  25 100 CALM      30.08R
BELOIT         CLEAR     27  27 100 SW5       30.08S WCI  21
HAYS           CLEAR     25  16  68 SW6       30.08S WCI  18
RUSSELL        CLEAR     27  26  96 S8        30.08S FOG     WCI  19
CONCORDIA      CLEAR     27  27 100 S8        30.08S FOG     WCI  19
SALINA         FOG       33  32  96 S14       30.13S VSB 1/4 WCI  23
TOPEKA         CLEAR     35  31  85 S10       30.16S WCI  27



USA.gov is the U.S. government's official web portal to all federal, state and local government web resources and services.